Regional Weather Roundup
Issued by NWS

Home | Current Version | Previous Version | Graphics & Text | Print | Product List | Glossary On
Versions: 1 2 3 4 5 6 7 8 9 10 11 12 13 14 15 16 17 18 19 20 21 22 23 24 25 26 27
000
ASUS45 KCYS 162310
RWRWY

WYOMING REGIONAL WEATHER ROUNDUP
NATIONAL WEATHER SERVICE CHEYENNE WY
500 PM MDT WED APR 16 2014

NOTE:  "FAIR" INDICATES FEW OR NO CLOUDS BELOW 12,000 FEET
WITH NO SIGNIFICANT WEATHER AND/OR OBSTRUCTIONS TO VISIBILITY.

WYZ001-170000-
YELLOWSTONE NATIONAL PARK

CITY           SKY/WX    TMP DP  RH WIND       PRES   REMARKS
LK YELLOWSTONE   N/A     34   9  35 W8G17     29.99R WCI  27
W YELLOWSTONE  NOT AVBL

$$
WYZ002>013-054>058-071-098>099-170000-
NORTHERN WYOMING

CITY           SKY/WX    TMP DP  RH WIND       PRES   REMARKS
JACKSON        MOSUNNY   39  19  45 NW7       29.98S WCI  34
CODY           CLOUDY    45  21  39 CALM      29.95S
GREYBULL       MOSUNNY   50  25  37 SW8       29.95S
WORLAND        MOSUNNY   49  25  39 CALM      29.96S
SHERIDAN       CLOUDY    38  34  85 S12       30.02R WCI  30
BUFFALO        LGT SNOW  36  31  82 NW12      30.02R WCI  28
GILLETTE       CLOUDY    38  32  79 W7        30.01R WCI  33
HULETT         CLOUDY    43  25  49 NE6       30.00
NEWCASTLE      FAIR      45  21  39 N3        29.98

$$
WYZ014>020-022>026-101>103-170000-
CENTRAL WYOMING

CITY           SKY/WX    TMP DP  RH WIND       PRES   REMARKS
BIG PINEY      MOSUNNY   45  10  24 VRB3G17   29.98S
PINEDALE       PTCLDY    41  14  33 NW15G22   29.99S
DUBOIS         CLOUDY    41  10  28 N21G26    29.94S
LANDER         MOSUNNY   49  18  29 CALM      29.90F
RIVERTON       PTSUNNY   50  18  28 E8        29.92F
CASPER         MOSUNNY   45  28  51 N6        29.96S
DOUGLAS        LGT RAIN  42  28  57 CALM      29.99R

$$
WYZ021-027>030-104>119-170000-
SOUTHERN WYOMING

CITY           SKY/WX    TMP DP  RH WIND       PRES   REMARKS
EVANSTON       SUNNY     48   9  20 NW14G20   29.98S
KEMMERER       CLEAR     46  10  23 NW13G22   29.98S
FORT BRIDGER   FAIR      52   5  15 W15G24    30.00R
ROCK SPRINGS   MOSUNNY   50   5  16 NW14G23   29.95S
DIXON          FAIR      51   9  18 W13       29.97S
RAWLINS        PTSUNNY   47   4  17 W8G26     29.95S
SARATOGA       FAIR      46  10  23 W13G20    29.96S
LARAMIE        CLOUDY    41  19  41 N17       29.93S
CHEYENNE       MOSUNNY   44  24  45 NE16G28   29.94S
TORRINGTON     MOSUNNY   51  19  28 N16G22    29.95R
PINE BLUFFS    FAIR      46  27  46 N21       29.95F

$$



USA.gov is the U.S. government's official web portal to all federal, state and local government web resources and services.